[[{"header":{"parameterUnit":"m.s-1","parameterCategory":1,"la1":30.2992,"la2":30.254,"lo1":-89.0895,"lo2":-89.0443,"dy":0.0025,"dx":0.0025,"nx":19,"ny":19,"refTime":"2026-05-22T21:00:00:Z","depth":0,"parameterNumber":2,"parameterNumberName":"U-component_of_WINDS"},"data":[0,0,0,0.425,0.425,0.4274,0.4274,0.4295,0.4295,0,0,0,0,0,0,0,0,0,0,0,0.4239,0.4239,0.4249,0.425,0.4274,0.4274,0.4295,0.4295,0,0,0,0,0,0,0,0,0,0,0,0.4239,0.4239,0.4239,0.425,0.4273,0.4274,0.4295,0.428,0,0,0,0,0,0,0,0,0,0,0.4258,0.4245,0.4239,0.4239,0.425,0.4273,0.4274,0.4279,0.4281,0.4281,0,0.4281,0,0.4288,0.4296,0.4296,0,0,0,0.4253,0.4244,0.4254,0.4239,0.425,0.4273,0.4264,0.428,0.4282,0.4283,0.4281,0.4282,0.4289,0.4296,0.4296,0.4288,0.4287,0,0,0.4251,0.4241,0.4252,0.4255,0.4252,0.4263,0.4264,0.4281,0.4279,0.4282,0.4283,0.4289,0.4296,0.4296,0.4288,0.4288,0,0,0,0.4246,0.424,0.4249,0.4254,0.4258,0.4264,0.4265,0.4278,0.4282,0.4283,0.4289,0.4296,0.4296,0.4288,0.4288,0.4268,0,0,0,0.4245,0.4237,0.4249,0.4242,0.4258,0.4269,0.4261,0.4281,0.4283,0.4289,0.4296,0.4297,0.4288,0.4288,0.4269,0.4261,0,0,0,0.4238,0.4236,0.4238,0.4242,0.4252,0.4269,0.4274,0.4282,0.4287,0.4296,0.4297,0.4288,0.4288,0.427,0.4263,0.4254,0,0,0,0.4228,0.4222,0.4238,0.4232,0.4251,0.4257,0.4274,0.4279,0.4285,0.4296,0.4288,0.4288,0.4271,0.4264,0.4255,0.4245,0.424,0,0,0.4214,0.422,0.4218,0.4232,0.4232,0.4254,0.4251,0.4267,0.4277,0.4283,0.4283,0.4269,0.4263,0.4255,0.4218,0.4214,0,0,0,0.4209,0.4207,0.421,0.4215,0.4226,0.4234,0.4251,0.4256,0.4261,0.4279,0.4265,0.4261,0.4257,0.4253,0.4249,0.4245,0.4286,0.4286,0.4286,0.4175,0.4188,0.4184,0.4198,0.4202,0.4218,0.4222,0.4231,0.4245,0.424,0.4242,0.4218,0.4213,0.421,0.4206,0.4239,0.4239,0.4239,0.4238,0.4155,0.4154,0.4168,0.417,0.4182,0.4183,0.4196,0.4204,0.4206,0.4219,0.4216,0.4228,0.4206,0.4202,0.4237,0.4237,0.4238,0.4238,0.4238,0.4134,0.4135,0.4141,0.4147,0.4149,0.4163,0.4163,0.4175,0.4186,0.4183,0.4184,0.4185,0.4185,0.4183,0.4183,0.4183,0.4182,0.4182,0.4182,0.411,0.4117,0.4115,0.4124,0.4126,0.4131,0.4144,0.4147,0.4153,0.4161,0.4161,0.4172,0.4202,0.4208,0.4181,0.4181,0.4181,0.4182,0.4182,0.4084,0.4091,0.4089,0.4092,0.41,0.41,0.4114,0.4118,0.4122,0.412,0.4131,0.4151,0.4158,0.4161,0.4166,0.413,0.413,0.413,0.413,0.4066,0.407,0.4069,0.4071,0.4075,0.4086,0.408,0.4089,0.4099,0.4101,0.4108,0.4116,0.4118,0.4123,0.4127,0.4132,0.4088,0.4088,0.4088,0.405,0.4054,0.4048,0.4058,0.4065,0.4069,0.4064,0.4064,0.4077,0.4087,0.4103,0.4104,0.4118,0.4122,0.4132,0.4138,0.4147,0,0]},{"header":{"parameterUnit":"m.s-1","parameterCategory":1,"la1":30.2992,"la2":30.254,"lo1":-89.0895,"lo2":-89.0443,"dy":0.0025,"dx":0.0025,"nx":19,"ny":19,"refTime":"2026-05-22T21:00:00:Z","depth":0,"parameterNumber":3,"parameterNumberName":"V-component_of_WINDS"},"data":[0,0,0,5.8105,5.8106,5.8114,5.8114,5.8121,5.8121,0,0,0,0,0,0,0,0,0,0,0,5.8105,5.8106,5.8105,5.8106,5.8114,5.8114,5.8121,5.8121,0,0,0,0,0,0,0,0,0,0,0,5.8105,5.8105,5.8106,5.8106,5.8114,5.8114,5.8121,5.8115,0,0,0,0,0,0,0,0,0,0,5.8107,5.8111,5.8105,5.8106,5.8106,5.8114,5.8114,5.8115,5.8116,5.8118,0,5.8124,0,5.8123,5.8122,5.8122,0,0,0,5.8103,5.8111,5.8111,5.8106,5.8106,5.8114,5.8109,5.8115,5.8116,5.8118,5.8124,5.8124,5.8123,5.8122,5.8122,5.8148,5.8148,0,0,5.8103,5.8108,5.811,5.8111,5.8114,5.8109,5.811,5.8116,5.812,5.8124,5.8124,5.8123,5.8122,5.8122,5.8148,5.8148,0,0,0,5.8103,5.8107,5.8107,5.8111,5.8113,5.8109,5.811,5.812,5.812,5.8124,5.8123,5.8122,5.8122,5.8148,5.8148,5.8165,0,0,0,5.8103,5.8108,5.8107,5.811,5.8113,5.8118,5.8114,5.8119,5.812,5.8123,5.8122,5.8122,5.8148,5.8148,5.8164,5.8172,0,0,0,5.8104,5.8108,5.811,5.8111,5.8115,5.8117,5.8117,5.8119,5.8119,5.8122,5.8122,5.8147,5.8148,5.8163,5.817,5.8178,0,0,0,5.8106,5.8126,5.811,5.8131,5.8115,5.8129,5.8117,5.8127,5.8132,5.8122,5.8148,5.8148,5.8163,5.8169,5.8177,5.8186,5.819,0,0,5.8133,5.8129,5.814,5.8127,5.8145,5.8127,5.8146,5.8145,5.8139,5.8144,5.8145,5.8164,5.817,5.8178,5.8215,5.8218,0,0,0,5.815,5.8158,5.8162,5.8167,5.8167,5.8166,5.8161,5.8159,5.8164,5.8144,5.817,5.8173,5.8177,5.8181,5.8184,5.8186,5.815,5.815,5.815,5.8196,5.8188,5.8205,5.8197,5.8202,5.8195,5.8196,5.8192,5.8183,5.8189,5.8191,5.8214,5.8218,5.8221,5.8223,5.8195,5.8195,5.8195,5.8195,5.8233,5.8242,5.8228,5.824,5.8229,5.8237,5.8229,5.8221,5.8225,5.8213,5.8216,5.8204,5.8225,5.8226,5.8196,5.8196,5.8196,5.8196,5.8196,5.8262,5.8264,5.8263,5.8266,5.8269,5.8258,5.8262,5.8252,5.8243,5.8246,5.8245,5.8245,5.8241,5.8246,5.8247,5.8247,5.8247,5.8247,5.8247,5.8291,5.8289,5.8294,5.8293,5.8293,5.8291,5.828,5.8279,5.8274,5.8266,5.8266,5.8254,5.8229,5.8223,5.8248,5.8248,5.8248,5.8248,5.8247,5.8331,5.8319,5.8328,5.8328,5.8323,5.8323,5.8311,5.8307,5.8304,5.8305,5.8291,5.8275,5.8269,5.8267,5.8261,5.8295,5.8295,5.8295,5.8295,5.8353,5.8349,5.8354,5.8353,5.8351,5.8339,5.8344,5.8334,5.8322,5.8319,5.8312,5.8304,5.8302,5.8297,5.8294,5.8288,5.8328,5.8328,5.8328,5.8375,5.837,5.8379,5.8369,5.8363,5.8356,5.836,5.8356,5.834,5.8329,5.8315,5.8313,5.83,5.8296,5.8286,5.8282,5.8271,0,0]}]]